Voltar ao catálogo

STARLINK-31007

AtivoComunicaçõesVLEO
NORAD 58889·PAYLOAD·🇺🇸 United States

Lançado Jan 29, 2024 de Vandenberg Space Force Base

Loading…

Próximas Passagens (próximas 24 horas)

TLE

AtualizadoSource: CelesTrak SupGP

Época: Sep 14, 2026, 22:44 UTC

1 58889C 24020P   26257.94770833 -.00059674  00000+0 -17627-2 0  2573
2 58889  53.1572 159.5863 0001301  99.7747 139.8115 15.34427309    15

Acompanhe STARLINK-31007 em tempo real com AllMySat

Download on the App Store